User: anonymous   Login
Location: Unspecified
(0.0000°N, 0.0000°E)
Time: 23:34:32
(UTC+00:00)
Language:

USA 278 - Orbit

View from above orbital plane
View from above orbital plane
View from above satellite
View from above satellite

Ground track
Ground track

The orbit data is extracted from the following two-line orbital elements,

1 42941U 17056A   18191.66188158 0.00000000  00000-0  00000-0 0    05
2 42941  63.6456 137.1350 6839311 267.8613  19.1123  2.00617000    09
Epoch (UTC): 10 July 2018 15:53:06
Eccentricity: 0.6839311
inclination: 63.6456°
perigee height: 2015 km
apogee height: 38339 km
right ascension of ascending node: 137.1350°
argument of perigee: 267.8613°
revolutions per day: 2.00617000
mean anomaly at epoch: 19.1123°
orbit number at epoch: 0

The dashed part of the orbit path shows where the satellite is in the earth's shadow,  

DLR